Weather History for Inverness, FL

Change the Weather History Date:

Friday, January 10, 2014

  Actual Average (KOCF) Record (KOCF)
Temperature  
Mean Temperature 72 °F -  
Max Temperature 80 °F 66 °F 82 °F (2013)
Min Temperature 62 °F 41 °F 21 °F (2001)
Cooling Degree Days 7    
Growing Degree Days 22 (Base 50)    
Moisture  
Dew Point 66 °F    
Average Humidity 90    
Maximum Humidity 100    
Minimum Humidity 61    
Precipitation  
Precipitation 0.01 in - - ()
Sea Level Pressure  
Sea Level Pressure 30.14 in    
Wind  
Wind Speed 1 mph (SE)    
Max Wind Speed 6 mph    
Max Gust Speed -    
Visibility 6 miles    
Events      
Averages and records for this station are not official NWS values.
T = Trace of Precipitation, MM = Missing Value Source: NWS Daily Summary

Daily Weather History Graph

Daily Weather History Graph

Search for Another Location

Airport:

Trip Planner

Search our weather history database for the weather conditions in past years. The results will help you decide how hot, cold, wet, or windy it might be!

Date:

Astronomy

Jan. 10, 2014 Rise Set
Actual Time 7:23 AM EST 5:50 PM EST
Civil Twilight 6:58 AM EST 6:15 PM EST
Nautical Twilight 6:28 AM EST 6:45 PM EST
Astronomical Twilight 6:00 AM EST 7:13 PM EST
Moon 1:47 PM EST (1/10) 2:37 AM EST (1/10)
Length of Visible Light 11h 17m
Length of Day
10h 26m
Waxing Gibbous, 75% of the Moon is Illuminated
Jan 10
Waxing Gibbous
Jan 15
Full
Jan 24
Last Quarter
Jan 30
New
Feb 6
First Quarter

Hourly Weather History & Observations

Time (EST) Temp. Heat Index Dew Point Humidity Pressure Visibility Wind Dir Wind Speed Gust Speed Precip Events Conditions
12:15 AM 64.4 °F - 64.4 °F 100% 30.24 in 7.0 mi East 3.5 mph - N/A   Overcast
12:35 AM 64.4 °F - 64.4 °F 100% 30.24 in 7.0 mi Calm Calm - N/A   Overcast
12:55 AM 64.4 °F - 64.4 °F 100% 30.23 in 5.0 mi Calm Calm - N/A   Overcast
1:15 AM 64.4 °F - 64.4 °F 100% 30.22 in 7.0 mi Calm Calm - N/A   Overcast
1:35 AM 64.4 °F - 64.4 °F 100% 30.22 in 5.0 mi Calm Calm - N/A   Overcast
1:55 AM 64.4 °F - 64.4 °F 100% 30.22 in 7.0 mi Calm Calm - N/A   Overcast
2:15 AM 64.4 °F - 64.4 °F 100% 30.20 in 7.0 mi Calm Calm - N/A   Overcast
2:35 AM 64.4 °F - 64.4 °F 100% 30.19 in 7.0 mi Calm Calm - N/A   Overcast
2:55 AM 64.4 °F - 64.4 °F 100% 30.18 in 5.0 mi Calm Calm - N/A   Overcast
3:15 AM 64.4 °F - 64.4 °F 100% 30.18 in 5.0 mi Calm Calm - N/A   Overcast
3:35 AM 64.4 °F - 64.4 °F 100% 30.17 in 4.0 mi Calm Calm - N/A   Overcast
3:55 AM 64.4 °F - 64.4 °F 100% 30.17 in 4.0 mi Calm Calm - N/A   Overcast
4:15 AM 64.4 °F - 64.4 °F 100% 30.16 in 3.0 mi Calm Calm - N/A   Overcast
4:35 AM 64.4 °F - 64.4 °F 100% 30.17 in 1.5 mi Calm Calm - N/A   Overcast
4:55 AM 64.4 °F - 64.4 °F 100% 30.16 in 1.0 mi Calm Calm - N/A   Overcast
5:15 AM 64.4 °F - 64.4 °F 100% 30.16 in 1.8 mi Calm Calm - N/A   Overcast
5:35 AM 64.4 °F - 64.4 °F 100% 30.16 in 1.0 mi Calm Calm - N/A   Overcast
5:55 AM 64.4 °F - 64.4 °F 100% 30.17 in 1.0 mi Calm Calm - N/A   Overcast
6:15 AM 64.4 °F - 64.4 °F 100% 30.17 in 1.0 mi Calm Calm - N/A   Overcast
6:35 AM 66.2 °F - 64.4 °F 94% 30.17 in 1.0 mi Calm Calm - N/A   Overcast
6:55 AM 66.2 °F - 64.4 °F 94% 30.17 in 2.5 mi ESE 3.5 mph - N/A   Mostly Cloudy
7:15 AM 66.2 °F - 64.4 °F 94% 30.17 in 2.0 mi Calm Calm - N/A   Overcast
7:35 AM 66.2 °F - 64.4 °F 94% 30.19 in 3.0 mi Calm Calm - N/A   Overcast
7:55 AM 66.2 °F - 66.2 °F 100% 30.18 in 1.5 mi East 3.5 mph - 0.01 in   Overcast
8:15 AM 66.2 °F - 66.2 °F 100% 30.19 in 1.8 mi East 3.5 mph - N/A   Overcast
8:35 AM 68.0 °F - 68.0 °F 100% 30.19 in 2.5 mi ESE 4.6 mph - N/A   Overcast
8:55 AM 68.0 °F - 68.0 °F 100% 30.19 in 2.5 mi ESE 3.5 mph - N/A   Overcast
9:15 AM 68.0 °F - 68.0 °F 100% 30.20 in 4.0 mi ESE 4.6 mph - N/A   Overcast
9:35 AM 69.8 °F - 68.0 °F 94% 30.19 in 5.0 mi ESE 4.6 mph - N/A   Overcast
9:55 AM 69.8 °F - 69.8 °F 100% 30.20 in 7.0 mi Calm Calm - N/A   Overcast
10:15 AM 69.8 °F - 69.8 °F 100% 30.20 in 5.0 mi SE 4.6 mph - N/A   Overcast
10:35 AM 71.6 °F - 69.8 °F 94% 30.19 in 7.0 mi SE 3.5 mph - N/A   Overcast
10:55 AM 71.6 °F - 69.8 °F 94% 30.19 in 7.0 mi SE 5.8 mph - N/A   Overcast
11:15 AM 73.4 °F - 68.0 °F 83% 30.18 in 7.0 mi SSE 5.8 mph - N/A   Overcast
11:35 AM 75.2 °F - 68.0 °F 78% 30.16 in 7.0 mi SSE 4.6 mph - N/A   Overcast
11:55 AM 75.2 °F - 68.0 °F 78% 30.15 in 7.0 mi SE 5.8 mph - N/A   Mostly Cloudy
12:15 PM 78.8 °F - 68.0 °F 69% 30.14 in 7.0 mi SSE 5.8 mph - N/A   Mostly Cloudy
12:35 PM 78.8 °F - 68.0 °F 69% 30.12 in 10.0 mi SSE 4.6 mph - N/A   Scattered Clouds
12:55 PM 78.8 °F - 68.0 °F 69% 30.11 in 7.0 mi SSE 4.6 mph - N/A   Scattered Clouds
1:15 PM 78.8 °F - 68.0 °F 69% 30.10 in 10.0 mi ESE 3.5 mph - N/A   Mostly Cloudy
1:35 PM 78.8 °F - 68.0 °F 69% 30.09 in 7.0 mi Calm Calm - N/A   Overcast
1:55 PM 78.8 °F - 68.0 °F 69% 30.09 in 7.0 mi Calm Calm - N/A   Overcast
2:15 PM 78.8 °F - 68.0 °F 69% 30.08 in 10.0 mi Calm Calm - N/A   Overcast
2:35 PM 78.8 °F - 68.0 °F 69% 30.07 in 7.0 mi ESE 3.5 mph - N/A   Overcast
2:55 PM 78.8 °F - 68.0 °F 69% 30.07 in 10.0 mi Calm Calm - N/A   Scattered Clouds
3:15 PM 80.6 °F 82.7 °F 66.2 °F 61% 30.07 in 7.0 mi South 5.8 mph - N/A   Scattered Clouds
3:35 PM 78.8 °F - 66.2 °F 65% 30.07 in 10.0 mi SSE 3.5 mph - N/A   Scattered Clouds
3:55 PM 78.8 °F - 68.0 °F 69% 30.07 in 10.0 mi Calm Calm - N/A   Mostly Cloudy
4:15 PM 77.0 °F - 69.8 °F 78% 30.07 in 7.0 mi Calm Calm - N/A   Mostly Cloudy
4:35 PM 73.4 °F - 68.0 °F 83% 30.07 in 10.0 mi Calm Calm - N/A   Mostly Cloudy
4:55 PM 73.4 °F - 69.8 °F 88% 30.07 in 7.0 mi West 3.5 mph - N/A   Overcast
5:15 PM 75.2 °F - 69.8 °F 83% 30.07 in 7.0 mi Calm Calm - N/A   Overcast
5:35 PM 75.2 °F - 69.8 °F 83% 30.07 in 7.0 mi Calm Calm - N/A   Overcast
5:55 PM 73.4 °F - 69.8 °F 88% 30.08 in 10.0 mi Calm Calm - N/A   Overcast
6:15 PM 73.4 °F - 68.0 °F 83% 30.08 in 10.0 mi Calm Calm - N/A   Overcast
6:35 PM 73.4 °F - 68.0 °F 83% 30.09 in 10.0 mi Calm Calm - N/A   Overcast
6:55 PM 71.6 °F - 68.0 °F 88% 30.09 in 10.0 mi Calm Calm - N/A   Overcast
7:15 PM 71.6 °F - 68.0 °F 88% 30.10 in 7.0 mi Calm Calm - N/A   Overcast
7:35 PM 69.8 °F - 68.0 °F 94% 30.11 in 10.0 mi Calm Calm - N/A   Overcast
7:55 PM 69.8 °F - 68.0 °F 94% 30.11 in 7.0 mi Calm Calm - N/A   Overcast
8:15 PM 69.8 °F - 68.0 °F 94% 30.12 in 10.0 mi Calm Calm - N/A   Overcast
8:35 PM 69.8 °F - 68.0 °F 94% 30.12 in 7.0 mi Calm Calm - N/A   Overcast
8:55 PM 68.0 °F - 68.0 °F 100% 30.12 in 7.0 mi Calm Calm - N/A   Mostly Cloudy
9:15 PM 68.0 °F - 68.0 °F 100% 30.12 in 7.0 mi Calm Calm - N/A   Scattered Clouds
9:35 PM 68.0 °F - 66.2 °F 94% 30.12 in 7.0 mi Calm Calm - N/A   Scattered Clouds
9:55 PM 66.2 °F - 64.4 °F 94% 30.13 in 2.0 mi Calm Calm - N/A   Scattered Clouds
10:15 PM 64.4 °F - 64.4 °F 100% 30.12 in 5.0 mi Calm Calm - N/A   Mostly Cloudy
10:35 PM 64.4 °F - 62.6 °F 94% 30.12 in 2.5 mi Calm Calm - N/A   Scattered Clouds
10:55 PM 64.4 °F - 64.4 °F 100% 30.11 in 4.0 mi Calm Calm - N/A   Clear
11:15 PM 64.4 °F - 62.6 °F 94% 30.11 in 2.5 mi Calm Calm - N/A   Mostly Cloudy
11:35 PM 64.4 °F - 62.6 °F 94% 30.11 in 2.5 mi Calm Calm - N/A   Scattered Clouds
11:55 PM 62.6 °F - 62.6 °F 100% 30.10 in 3.0 mi Calm Calm - N/A   Scattered Clouds